DEBIF EDNX-XXXX

Flight info

Callsign DEBIF
Flight time N/A
Altitude
Route
Aircraft PA28

Departure

Time 2026-04-23 14:41
Airport Schleissheim Airfield (EDNX)

Arrival

Time N/A
Airport XXXX
Time Latitude Longitude Altitude Speed Heading
2026-04-23 14:41 48.21594 11.68655 2998 ft 142 kts 81°
2026-04-23 14:41 48.21692 11.70136 2975 ft 144 kts 79°
2026-04-23 14:41 48.21833 11.71601 2996 ft 140 kts 75°
2026-04-23 14:42 48.22112 11.73028 2974 ft 143 kts 66°
2026-04-23 14:42 48.22540 11.74368 2932 ft 142 kts 54°
2026-04-23 14:42 48.23076 11.75616 2881 ft 142 kts 50°
2026-04-23 14:42 48.23614 11.76850 2876 ft 140 kts 53°
2026-04-23 14:43 48.24134 11.78075 2876 ft 140 kts 53°
2026-04-23 14:43 48.24658 11.79307 2860 ft 140 kts 54°
2026-04-23 14:43 48.25213 11.80528 2805 ft 140 kts 45°
2026-04-23 14:43 48.26018 11.81181 2779 ft 130 kts
2026-04-23 14:44 48.26883 11.80940 2774 ft 125 kts 344°
2026-04-23 14:44 48.27733 11.80710 2838 ft 122 kts 347°
2026-04-23 14:44 48.28574 11.80531 2883 ft 123 kts 349°
2026-04-23 14:44 48.29434 11.80360 2862 ft 127 kts 348°
2026-04-23 14:45 48.30318 11.80195 2778 ft 129 kts 349°
2026-04-23 14:45 48.31212 11.80048 2712 ft 129 kts 350°
2026-04-23 14:45 48.32106 11.80111 2711 ft 133 kts 14°
2026-04-23 14:45 48.32647 11.81260 2641 ft 146 kts 76°
2026-04-23 14:46 48.32816 11.82752 2518 ft 143 kts 64°
2026-04-23 14:46 48.33544 11.83638 2344 ft 135 kts
2026-04-23 14:46 48.34339 11.83189 2232 ft 128 kts 309°
2026-04-23 14:46 48.34499 11.81832 1969 ft 135 kts 277°
2026-04-23 14:47 48.34468 11.80386 1648 ft 143 kts 266°
2026-04-23 14:47 48.34352 11.78910 1505 ft 139 kts 267°
2026-04-23 14:47 48.34266 11.77510 1593 ft 126 kts 269°
2026-04-23 14:47 48.34453 11.76427 1928 ft 100 kts 311°
2026-04-23 14:48 48.35125 11.76193 2057 ft 109 kts
2026-04-23 14:48 48.35770 11.76856 2199 ft 118 kts 42°
2026-04-23 14:48 48.36288 11.77798 2355 ft 115 kts 45°
2026-04-23 14:48 48.36803 11.78719 2515 ft 115 kts 44°
2026-04-23 14:49 48.37317 11.79633 2613 ft 115 kts 43°
2026-04-23 14:49 48.37847 11.80538 2772 ft 115 kts 42°
2026-04-23 14:49 48.38474 11.81360 2798 ft 127 kts 32°
2026-04-23 14:49 48.39190 11.82160 2802 ft 127 kts 29°
2026-04-23 14:50 48.39945 11.82876 2788 ft 129 kts 20°
2026-04-23 14:50 48.40805 11.83108 2778 ft 123 kts 356°
2026-04-23 14:50 48.41633 11.83115 2789 ft 118 kts 355°
2026-04-23 14:50 48.42449 11.82954 2787 ft 119 kts 343°
2026-04-23 14:51 48.42996 11.82810 2778 ft 120 kts 346°
2026-04-23 14:51 48.43818 11.82621 2791 ft 121 kts 345°
2026-04-23 14:51 48.44646 11.82404 2789 ft 120 kts 345°
2026-04-23 14:51 48.45468 11.82156 2785 ft 120 kts 346°
2026-04-23 14:52 48.46273 11.81912 2781 ft 116 kts 345°
2026-04-23 14:52 48.47331 11.81625 2793 ft 116 kts 345°
2026-04-23 14:52 48.47874 11.81510 2794 ft 119 kts 349°
2026-04-23 14:52 48.48642 11.81783 3032 ft 114 kts 18°
2026-04-23 14:53 48.49239 11.82634 3153 ft 120 kts 51°
2026-04-23 14:53 48.49564 11.83776 3359 ft 117 kts 58°
2026-04-23 14:53 48.50074 11.84726 3556 ft 116 kts 41°
2026-04-23 14:53 48.50614 11.85631 3765 ft 118 kts 43°
2026-04-23 14:54 48.51162 11.86549 3966 ft 116 kts 41°
2026-04-23 14:54 48.51700 11.87425 4170 ft 114 kts 38°
2026-04-23 14:54 48.52260 11.88294 4328 ft 118 kts 37°
2026-04-23 14:54 48.52861 11.89266 4330 ft 132 kts 43°
2026-04-23 14:55 48.53476 11.90326 4332 ft 137 kts 42°
2026-04-23 14:55 48.54119 11.91410 4327 ft 139 kts 41°
2026-04-23 14:55 48.54762 11.92481 4334 ft 136 kts 41°
2026-04-23 14:55 48.55413 11.93537 4329 ft 139 kts 40°
2026-04-23 14:56 48.56057 11.94614 4331 ft 141 kts 43°
2026-04-23 14:56 48.56706 11.95712 4332 ft 141 kts 42°
2026-04-23 14:56 48.57368 11.96810 4327 ft 142 kts 41°
2026-04-23 14:56 48.58025 11.97897 4319 ft 137 kts 42°
2026-04-23 14:57 48.58662 11.98954 4320 ft 136 kts 41°
2026-04-23 14:57 48.59293 12.00008 4324 ft 136 kts 41°
2026-04-23 14:57 48.59920 12.01057 4318 ft 133 kts 40°
2026-04-23 14:57 48.60549 12.02094 4319 ft 135 kts 41°
2026-04-23 14:58 48.61182 12.03151 4323 ft 137 kts 42°
2026-04-23 14:58 48.61825 12.04224 4322 ft 137 kts 42°
2026-04-23 14:58 48.62463 12.05293 4319 ft 137 kts 42°
2026-04-23 14:58 48.63096 12.06359 4317 ft 136 kts 42°
2026-04-23 14:59 48.63733 12.07421 4313 ft 136 kts 41°
2026-04-23 14:59 48.64372 12.08480 4316 ft 137 kts 41°
2026-04-23 14:59 48.65016 12.09560 4316 ft 138 kts 41°
2026-04-23 14:59 48.65656 12.10632 4320 ft 137 kts 41°
2026-04-23 15:00 48.66300 12.11702 4314 ft 137 kts 41°
2026-04-23 15:00 48.66932 12.12767 4321 ft 136 kts 41°
2026-04-23 15:00 48.67566 12.13826 4320 ft 136 kts 40°
2026-04-23 15:00 48.68199 12.14881 4317 ft 135 kts 41°
2026-04-23 15:01 48.68826 12.15935 4313 ft 134 kts 41°
2026-04-23 15:01 48.69449 12.16977 4312 ft 133 kts 40°
2026-04-23 15:01 48.70068 12.18015 4320 ft 134 kts 41°
2026-04-23 15:01 48.70697 12.19062 4317 ft 135 kts 43°
2026-04-23 15:02 48.71324 12.20129 4313 ft 135 kts 44°
2026-04-23 15:02 48.71952 12.21188 4316 ft 136 kts 41°
2026-04-23 15:02 48.72583 12.22243 4316 ft 134 kts 40°
2026-04-23 15:02 48.73212 12.23295 4315 ft 134 kts 41°
2026-04-23 15:03 48.73846 12.24342 4315 ft 135 kts 41°
2026-04-23 15:03 48.74471 12.25408 4314 ft 136 kts 42°
2026-04-23 15:03 48.75105 12.26482 4317 ft 138 kts 41°
2026-04-23 15:03 48.75742 12.27560 4324 ft 138 kts 41°
2026-04-23 15:04 48.76393 12.28656 4324 ft 141 kts 42°
2026-04-23 15:04 48.77050 12.29754 4322 ft 141 kts 41°
2026-04-23 15:04 48.77701 12.30855 4320 ft 141 kts 40°
2026-04-23 15:04 48.78361 12.31961 4315 ft 140 kts 41°
2026-04-23 15:05 48.79015 12.33068 4315 ft 142 kts 41°
2026-04-23 15:05 48.79672 12.34180 4316 ft 141 kts 40°
2026-04-23 15:05 48.80326 12.35272 4314 ft 139 kts 40°
2026-04-23 15:05 48.80980 12.36340 4308 ft 139 kts 40°
2026-04-23 15:06 48.81594 12.37489 4293 ft 142 kts 45°
2026-04-23 15:06 48.82173 12.38732 4234 ft 146 kts 48°
2026-04-23 15:06 48.82748 12.39995 4255 ft 145 kts 47°
2026-04-23 15:06 48.83334 12.41247 4167 ft 147 kts 45°
2026-04-23 15:07 48.83977 12.42470 4093 ft 148 kts 45°
2026-04-23 15:07 48.84610 12.43698 4039 ft 147 kts 45°
2026-04-23 15:07 48.85248 12.44913 3949 ft 147 kts 44°
2026-04-23 15:07 48.85885 12.46118 3776 ft 146 kts 44°
2026-04-23 15:08 48.86519 12.47330 3611 ft 146 kts 45°
2026-04-23 15:08 48.87143 12.48529 3400 ft 143 kts 45°
2026-04-23 15:08 48.87769 12.49717 3106 ft 144 kts 44°
2026-04-23 15:09 48.89238 12.51484 2480 ft 132 kts 18°
2026-04-23 15:09 48.90118 12.51784 2101 ft 129 kts
2026-04-23 15:09 48.90898 12.52230 2009 ft 113 kts 36°
2026-04-23 15:09 48.91001 12.53310 1809 ft 110 kts 102°
2026-04-23 15:10 48.90784 12.54015 1635 ft 108 kts 126°
2026-04-23 15:10 48.89988 12.54199 1353 ft 86 kts 225°
2026-04-23 15:10 48.89867 12.53457 1193 ft 66 kts 289°
2026-04-23 15:10 48.89982 12.52815 1080 ft 62 kts 283°
2026-04-23 15:11 48.90039 12.52236 1046 ft 46 kts 280°
2026-04-23 15:11 48.90073 12.51876 1053 ft 19 kts 277°
2026-04-23 15:11 48.90123 12.51787 1054 ft 7 kts 347°
2026-04-23 15:11 48.90139 12.51751 1056 ft 7 kts 277°
2026-04-23 15:12 48.90149 12.51614 1057 ft 17 kts 277°
2026-04-23 15:12 48.90164 12.51442 1056 ft 14 kts 278°
2026-04-23 15:12 48.90175 12.51329 1058 ft 7 kts 295°
2026-04-23 15:12 48.90188 12.51292 1058 ft 10 kts 254°
2026-04-23 15:13 48.90175 12.51320 1058 ft 6 kts 39°
2026-04-23 15:13 48.90186 12.51326 1058 ft 0 kts